Regional Weather Roundup
Issued by NWS

Home | Current Version | Previous Version | Text Only | Print | Product List | Glossary On
Versions: 1 2 3 4 5 6 7 8 9 10 11 12 13 14 15 16 17 18 19 20 21 22 23 24 25 26 27 28 29 30 31 32 33 34 35 36 37 38 39 40 41 42 43 44 45 46 47 48 49 50
000
ASUS43 KTOP 280208
RWRKS

WEATHER ROUNDUP FOR KANSAS
NATIONAL WEATHER SERVICE GOODLAND KS
900 PM CDT WED AUG 27 2014

NOTE:  "FAIR" INDICATES FEW OR NO CLOUDS BELOW 12,000 FEET WITH NO
SIGNIFICANT WEATHER AND/OR OBSTRUCTIONS TO VISIBILITY.

KSZ001>006-013>018-027>032-041>047-280300-
NORTHWEST KANSAS

CITY           SKY/WX    TMP DP  RH WIND       PRES   REMARKS
GOODLAND       PTCLDY    70  66  87 SE12      30.02R
HAYS           CLOUDY    75  68  78 E7        29.99R
HILL CITY      CLOUDY    70  68  93 N8        30.02R THUNDER
RUSSELL        LGT RAIN  76  70  82 E12       29.96F
$$

KSZ061>065-074>080-084>089-280300-
SOUTHWEST KANSAS

CITY           SKY/WX    TMP DP  RH WIND       PRES   REMARKS
DODGE CITY     CLOUDY    74  64  71 S10       30.02S
ELKHART          N/A     75  61  62 SE23        N/A
GARDEN CITY    PTCLDY    73  66  78 S13       30.01R
GREAT BEND     CLOUDY    81  66  61 SE13      29.99S
LIBERAL        PTCLDY    72  63  73 S16G23    30.04S
PRATT          LGT RAIN  82  59  44 S7        30.02R
$$

KSZ066>073-081>083-090>101-280300-
SOUTHEAST KANSAS

CITY           SKY/WX    TMP DP  RH WIND       PRES   REMARKS
CHANUTE        PTCLDY    84  68  58 E8        30.01R
COFFEYVILLE    PTCLDY    85  68  56 SE7       29.99R
HUTCHINSON     MOCLDY    82  65  56 E7        30.00R
MEDICINE LODGE   N/A     87  61  41 SE7       29.98R
NEWTON         MOCLDY    81  61  50 SE6       30.05R
PARSONS        PTCLDY    83  67  58 CALM      30.01R
WICHITA INTL   PTCLDY    84  64  50 SE7       29.99R
WICHITA JABRA  PTCLDY    83  64  52 S6        30.00R
WICHITA MCCONL MOCLDY    86  64  47 SE8       30.00R
WINFIELD       PTCLDY    85  66  53 SE8       30.01R
$$

KSZ007>012-019>026-033>040-048>060-102>105-280300-
NORTHEAST KANSAS

CITY           SKY/WX    TMP DP  RH WIND       PRES   REMARKS
CONCORDIA      CLOUDY    76  73  91 E7        30.00S
EMPORIA        MOCLDY    82  70  66 E9        30.00S
LAWRENCE       CLOUDY    82  74  76 E3        30.03R
MANHATTAN      CLOUDY    82  71  69 E8        30.00R
MARYSVILLE     MOCLDY    75  70  83 SE9       30.01F
OLATHE IND     CLOUDY    80  73  79 E9        30.04S
OLATHE EXE     CLOUDY    80  73  79 E12       30.04R
SALINA         CLOUDY    85  67  54 E7        29.98S
TOPEKA BILLARD CLOUDY    81  73  76 E7        30.01S
TOPEKA FORBES  CLOUDY    79  69  71 E7        30.02S
$$


USA.gov is the U.S. government's official web portal to all federal, state and local government web resources and services.